Regional Weather Roundup
Issued by NWS

Home | Current Version | Previous Version | Text Only | Print | Product List | Glossary On
Versions: 1 2 3 4 5 6 7 8 9 10 11 12 13 14 15 16 17 18 19 20 21 22 23 24 25 26 27 28 29 30 31 32 33 34 35 36 37 38 39 40 41 42 43 44 45 46 47 48 49 50
000
ASUS43 KLMK 141610
RWRKY
KENTUCKY REGIONAL WEATHER ROUNDUP
NATIONAL WEATHER SERVICE LOUISVILLE KY
1200 PM EDT SUN SEP 14 2014

NOTE "FAIR" INDICATES FEW OR NO CLOUDS BELOW 12,000 FEET
WITH NO SIGNIFICANT WEATHER AND/OR OBSTRUCTIONS TO VISIBILITY.

KYZ001>023-026-027-061>063-070>075-141700-
WESTERN AND SOUTH CENTRAL KENTUCKY

CITY           SKY/WX    TMP DP  RH WIND       PRES   REMARKS
PADUCAH        SUNNY     68  49  50 E5        30.29S
HENDERSON      SUNNY     64  48  55 NW5       30.29F
OWENSBORO      MOSUNNY   65  51  60 NE7       30.29F
HOPKINSVILLE   SUNNY     68  54  61 NE7       30.26F
BOWLING GREEN  SUNNY     68  52  56 E9        30.26F
GLASGOW        SUNNY     67  53  61 E6        30.26F
$$

KYZ024-025-028>034-038-045-046-053-141700-
NORTH CENTRAL KENTUCKY

CITY           SKY/WX    TMP DP  RH WIND       PRES   REMARKS
LOUISVILLE/SDF MOSUNNY   66  49  54 NE5       30.29F
LOUISVILLE/LOU MOSUNNY   65  48  54 E6        30.29F
FORT KNOX      MOSUNNY   64  49  59 VRB7      30.27F
$$

KYZ035>037-039>044-047>052-055>060-089>105-141700-
NORTHEAST KENTUCKY

CITY           SKY/WX    TMP DP  RH WIND       PRES   REMARKS
LEXINGTON      MOSUNNY   66  50  56 E9        30.29F
COVINGTON      PTSUNNY   64  45  49 SE10      30.30F
FRANKFORT      MOSUNNY   65  49  56 NE6       30.28F
$$

KYZ054-064>069-076>088-106>120-141700-
SOUTHEAST KENTUCKY

CITY           SKY/WX    TMP DP  RH WIND       PRES   REMARKS
JACKSON        PTSUNNY   63  53  70 CALM      30.29S
LONDON         PTSUNNY   68  56  65 N6        30.27F
SOMERSET       NOT AVBL
MIDDLESBORO    CLOUDY    64  56  76 CALM      30.26F
MONTICELLO     MOSUNNY   66  57  72 CALM      30.28F
$$



USA.gov is the U.S. government's official web portal to all federal, state and local government web resources and services.